Weather Data

Pearl Creek Farm: 8878 N Farm Road 75, Walnut Grove MO 65770

<== Previous Day (Tuesday 21 Jan 2014) | Next Day (Thursday 23 Jan 2014) ==>

Summary Precipitation Data For Wednesday 22 January 2014

ElementValueUnits
Precipitation0"
Notes(none)
SourcePearl Creek Farm

Summary Temperature Data For Wednesday 22 January 2014

ElementValueUnits
High Temperature38 oF
Low Temperature18 oF
Average Temperature28 oF
High Humidity73 %
Low Humidity49 %
Average Humidity61 %
SourcePearl Creek Farm

Detail Temperature Data For Wednesday 22 January 2014

Date / TimeTemp (F)RH (%)Dew Pt (F)Report Date / TimeSource
2014-01-22 00:00:00 19 71 11.0 2014-02-09 14:43:36 Pearl Creek Farm
2014-01-22 00:30:00 20 72 12.5 2014-02-09 14:43:36 Pearl Creek Farm
2014-01-22 01:00:00 20 72 12.3 2014-02-09 14:43:36 Pearl Creek Farm
2014-01-22 01:30:00 21 71 13.1 2014-02-09 14:43:36 Pearl Creek Farm
2014-01-22 02:00:00 20 69 11.3 2014-02-09 14:43:36 Pearl Creek Farm
2014-01-22 02:30:00 19 70 10.9 2014-02-09 14:43:36 Pearl Creek Farm
2014-01-22 03:00:00 19 71 11.2 2014-02-09 14:43:36 Pearl Creek Farm
2014-01-22 03:30:00 19 73 11.8 2014-02-09 14:43:36 Pearl Creek Farm
2014-01-22 04:00:00 18 73 10.7 2014-02-09 14:43:36 Pearl Creek Farm
2014-01-22 04:30:00 18 71 10.2 2014-02-09 14:43:36 Pearl Creek Farm
2014-01-22 05:00:00 18 69 9.4 2014-02-09 14:43:36 Pearl Creek Farm
2014-01-22 05:30:00 18 69 9.6 2014-02-09 14:43:36 Pearl Creek Farm
2014-01-22 06:00:00 19 70 10.9 2014-02-09 14:43:36 Pearl Creek Farm
2014-01-22 06:30:00 20 68 11.0 2014-02-09 14:43:36 Pearl Creek Farm
2014-01-22 07:00:00 21 65 11.0 2014-02-09 14:43:36 Pearl Creek Farm
2014-01-22 07:30:00 22 64 11.7 2014-02-09 14:43:36 Pearl Creek Farm
2014-01-22 08:00:00 23 64 12.7 2014-02-09 14:43:36 Pearl Creek Farm
2014-01-22 08:30:00 24 64 13.6 2014-02-09 14:43:36 Pearl Creek Farm
2014-01-22 09:00:00 25 64 14.4 2014-02-09 14:43:36 Pearl Creek Farm
2014-01-22 09:30:00 27 63 15.9 2014-02-09 14:43:36 Pearl Creek Farm
2014-01-22 10:00:00 29 64 18.2 2014-02-09 14:43:36 Pearl Creek Farm
2014-01-22 10:30:00 31 63 19.7 2014-02-09 14:43:36 Pearl Creek Farm
2014-01-22 11:00:00 33 61 20.9 2014-02-09 14:43:36 Pearl Creek Farm
2014-01-22 11:30:00 35 59 22.0 2014-02-09 14:43:36 Pearl Creek Farm
2014-01-22 12:00:00 36 56 21.9 2014-02-09 14:43:36 Pearl Creek Farm
2014-01-22 12:30:00 37 55 22.2 2014-02-09 14:43:36 Pearl Creek Farm
2014-01-22 13:00:00 38 55 23.1 2014-02-09 14:43:36 Pearl Creek Farm
2014-01-22 13:30:00 37 54 21.9 2014-02-09 14:43:36 Pearl Creek Farm
2014-01-22 14:00:00 37 55 22.4 2014-02-09 14:43:36 Pearl Creek Farm
2014-01-22 14:30:00 36 56 21.9 2014-02-09 14:43:36 Pearl Creek Farm
2014-01-22 15:00:00 37 52 20.8 2014-02-09 14:43:36 Pearl Creek Farm
2014-01-22 15:30:00 35 49 17.6 2014-02-09 14:43:36 Pearl Creek Farm
2014-01-22 16:00:00 35 51 18.5 2014-02-09 14:43:36 Pearl Creek Farm
2014-01-22 16:30:00 35 50 18.3 2014-02-09 14:43:36 Pearl Creek Farm
2014-01-22 17:00:00 35 50 18.1 2014-02-09 14:43:36 Pearl Creek Farm
2014-01-22 17:30:00 34 51 17.6 2014-02-09 14:43:36 Pearl Creek Farm
2014-01-22 18:00:00 32 49 15.1 2014-02-09 14:43:36 Pearl Creek Farm
2014-01-22 18:30:00 32 51 16.0 2014-02-09 14:43:36 Pearl Creek Farm
2014-01-22 19:00:00 31 52 15.5 2014-02-09 14:43:36 Pearl Creek Farm
2014-01-22 19:30:00 30 58 16.9 2014-02-09 14:43:36 Pearl Creek Farm
2014-01-22 20:00:00 29 62 17.7 2014-02-09 14:43:36 Pearl Creek Farm
2014-01-22 20:30:00 28 62 16.7 2014-02-09 14:43:36 Pearl Creek Farm
2014-01-22 21:00:00 28 63 16.9 2014-02-09 14:43:36 Pearl Creek Farm
2014-01-22 21:30:00 28 61 16.3 2014-02-09 14:43:36 Pearl Creek Farm
2014-01-22 22:00:00 30 57 16.5 2014-02-09 14:43:36 Pearl Creek Farm
2014-01-22 22:30:00 29 57 15.5 2014-02-09 14:43:36 Pearl Creek Farm
2014-01-22 23:00:00 27 60 15.0 2014-02-09 14:43:36 Pearl Creek Farm
2014-01-22 23:30:00 26 62 14.8 2014-02-09 14:43:36 Pearl Creek Farm

A total of 48 rows are displayed.